owner,sensor,date,latitude,longitude,vertical_datum,wind_speed,wind_to_direction,wind_speed_of_gust,qcFlag 
TCOON,ioos:station:TCOON:518:1,2008-04-01T00:00:00Z,29.5150,-94.5133,0.0,4.3,125.0,4.9,'11111222,11111222,11111222' 
TCOON,ioos:station:TCOON:518:1,2008-04-01T01:00:00Z,29.5150,-94.5133,0.0,4.6,112.0,5.1,'11111222,11111222,11111222' 
TCOON,ioos:station:TCOON:518:1,2008-04-01T03:00:00Z,29.5150,-94.5133,0.0,5.7,133.0,6.7,'11111222,11111222,11111222' 
TCOON,ioos:station:TCOON:518:1,2008-04-01T04:00:00Z,29.5150,-94.5133,0.0,5.1,145.0,5.9,'11111222,11111222,11111222' 
TCOON,ioos:station:TCOON:518:1,2008-04-01T05:00:00Z,29.5150,-94.5133,0.0,4.9,155.0,6.4,'11111222,11111222,11111222' 
TCOON,ioos:station:TCOON:518:1,2008-04-01T06:00:00Z,29.5150,-94.5133,0.0,2.3,157.0,2.8,'11111222,11111222,11111222' 
TCOON,ioos:station:TCOON:518:1,2008-04-01T07:00:00Z,29.5150,-94.5133,0.0,2.9,163.0,4.2,'11111222,11111222,11111222' 
TCOON,ioos:station:TCOON:518:1,2008-04-01T08:00:00Z,29.5150,-94.5133,0.0,3.2,153.0,5.0,'11111222,11111222,11111222' 
TCOON,ioos:station:TCOON:518:1,2008-04-01T09:00:00Z,29.5150,-94.5133,0.0,2.3,153.0,3.0,'11111222,11111222,11111222' 
TCOON,ioos:station:TCOON:518:1,2008-04-01T10:00:00Z,29.5150,-94.5133,0.0,2.5,125.0,3.0,'11111222,11111222,11111222' 
TCOON,ioos:station:TCOON:518:1,2008-04-01T11:00:00Z,29.5150,-94.5133,0.0,5.3,152.0,6.6,'11111222,11111222,11111222' 
TCOON,ioos:station:TCOON:518:1,2008-04-01T12:00:00Z,29.5150,-94.5133,0.0,3.0,148.0,3.7,'11111222,11111222,11111222' 
TCOON,ioos:station:TCOON:518:1,2008-04-01T13:00:00Z,29.5150,-94.5133,0.0,3.7,134.0,4.2,'11111222,11111222,11111222' 
TCOON,ioos:station:TCOON:518:1,2008-04-01T14:00:00Z,29.5150,-94.5133,0.0,4.6,141.0,6.1,'11111222,11111222,11111222' 
TCOON,ioos:station:TCOON:518:1,2008-04-01T15:00:00Z,29.5150,-94.5133,0.0,5.2,135.0,6.7,'11111222,11111222,11111222' 
TCOON,ioos:station:TCOON:518:1,2008-04-01T16:00:00Z,29.5150,-94.5133,0.0,5.9,146.0,8.2,'11111222,11111222,11111222' 
TCOON,ioos:station:TCOON:518:1,2008-04-01T17:00:00Z,29.5150,-94.5133,0.0,4.8,149.0,7.0,'11111222,11111222,11111222' 
TCOON,ioos:station:TCOON:518:1,2008-04-01T18:00:00Z,29.5150,-94.5133,0.0,4.1,144.0,5.4,'11111222,11111222,11111222' 
TCOON,ioos:station:TCOON:518:1,2008-04-01T19:00:00Z,29.5150,-94.5133,0.0,4.9,134.0,5.7,'11111222,11111222,11111222' 
TCOON,ioos:station:TCOON:518:1,2008-04-01T20:00:00Z,29.5150,-94.5133,0.0,4.6,137.0,15.4,'11111222,11111222,11111222' 
TCOON,ioos:station:TCOON:518:1,2008-04-01T21:00:00Z,29.5150,-94.5133,0.0,4.6,117.0,5.2,'11111222,11111222,11111222' 
TCOON,ioos:station:TCOON:518:1,2008-04-01T23:00:00Z,29.5150,-94.5133,0.0,4.9,129.0,5.7,'11111222,11111222,11111222' 
TCOON,ioos:station:TCOON:518:1,2008-04-02T00:00:00Z,29.5150,-94.5133,0.0,5.2,135.0,5.7,'11111222,11111222,11111222' 
TCOON,ioos:station:TCOON:518:1,2008-04-02T01:00:00Z,29.5150,-94.5133,0.0,3.9,119.0,4.6,'11111222,11111222,11111222' 
TCOON,ioos:station:TCOON:518:1,2008-04-02T02:00:00Z,29.5150,-94.5133,0.0,4.2,126.0,4.8,'11111222,11111222,11111222' 
TCOON,ioos:station:TCOON:518:1,2008-04-02T03:00:00Z,29.5150,-94.5133,0.0,3.8,118.0,4.4,'11111222,11111222,11111222' 
TCOON,ioos:station:TCOON:518:1,2008-04-02T04:00:00Z,29.5150,-94.5133,0.0,2.9,119.0,3.6,'11111222,11111222,11111222' 
TCOON,ioos:station:TCOON:518:1,2008-04-02T05:00:00Z,29.5150,-94.5133,0.0,3.3,112.0,99.0,'11111222,11111222,11144222' 
TCOON,ioos:station:TCOON:518:1,2008-04-02T06:00:00Z,29.5150,-94.5133,0.0,2.8,109.0,3.9,'11111222,11111222,11111222' 
TCOON,ioos:station:TCOON:518:1,2008-04-02T07:00:00Z,29.5150,-94.5133,0.0,2.9,99.0,3.4,'11111222,11111222,11111222' 
TCOON,ioos:station:TCOON:518:1,2008-04-02T08:00:00Z,29.5150,-94.5133,0.0,2.9,103.0,3.4,'11111222,11111222,11111222' 
TCOON,ioos:station:TCOON:518:1,2008-04-02T09:00:00Z,29.5150,-94.5133,0.0,3.2,81.0,3.6,'11111222,11111222,11111222' 
TCOON,ioos:station:TCOON:518:1,2008-04-02T10:00:00Z,29.5150,-94.5133,0.0,2.3,64.0,2.6,'11111222,11111222,11111222' 
TCOON,ioos:station:TCOON:518:1,2008-04-02T11:00:00Z,29.5150,-94.5133,0.0,2.3,70.0,2.6,'11111222,11111222,11111222' 
TCOON,ioos:station:TCOON:518:1,2008-04-02T12:00:00Z,29.5150,-94.5133,0.0,5.2,85.0,6.0,'11111222,11111222,11111222' 
TCOON,ioos:station:TCOON:518:1,2008-04-02T13:00:00Z,29.5150,-94.5133,0.0,5.1,102.0,6.1,'11111222,11111222,11111222' 
TCOON,ioos:station:TCOON:518:1,2008-04-02T14:00:00Z,29.5150,-94.5133,0.0,4.6,89.0,5.1,'11111222,11111222,11111222' 
TCOON,ioos:station:TCOON:518:1,2008-04-02T15:00:00Z,29.5150,-94.5133,0.0,3.9,113.0,4.7,'11111222,11111222,11111222' 
TCOON,ioos:station:TCOON:518:1,2008-04-02T16:00:00Z,29.5150,-94.5133,0.0,3.3,108.0,3.9,'11111222,11111222,11111222' 
TCOON,ioos:station:TCOON:518:1,2008-04-02T17:00:00Z,29.5150,-94.5133,0.0,3.5,113.0,4.4,'11111222,11111222,11111222' 
TCOON,ioos:station:TCOON:518:1,2008-04-02T18:00:00Z,29.5150,-94.5133,0.0,4.3,106.0,4.9,'11111222,11111222,11111222' 
TCOON,ioos:station:TCOON:518:1,2008-04-02T19:00:00Z,29.5150,-94.5133,0.0,4.9,120.0,5.7,'11111222,11111222,11111222' 
TCOON,ioos:station:TCOON:518:1,2008-04-02T20:00:00Z,29.5150,-94.5133,0.0,4.9,128.0,5.8,'11111222,11111222,11111222' 
TCOON,ioos:station:TCOON:518:1,2008-04-02T21:00:00Z,29.5150,-94.5133,0.0,3.8,138.0,5.1,'11111222,11111222,11111222' 
TCOON,ioos:station:TCOON:518:1,2008-04-02T22:00:00Z,29.5150,-94.5133,0.0,3.8,116.0,4.6,'11111222,11111222,11111222' 
TCOON,ioos:station:TCOON:518:1,2008-04-02T23:00:00Z,29.5150,-94.5133,0.0,4.4,116.0,5.3,'11111222,11111222,11111222' 
TCOON,ioos:station:TCOON:518:1,2008-04-03T00:00:00Z,29.5150,-94.5133,0.0,4.8,124.0,5.5,'11111222,11111222,11111222' 
TCOON,ioos:station:TCOON:518:1,2008-04-03T01:00:00Z,29.5150,-94.5133,0.0,4.6,131.0,5.4,'11111222,11111222,11111222' 
TCOON,ioos:station:TCOON:518:1,2008-04-03T02:00:00Z,29.5150,-94.5133,0.0,4.0,122.0,4.9,'11111222,11111222,11111222' 
TCOON,ioos:station:TCOON:518:1,2008-04-03T03:00:00Z,29.5150,-94.5133,0.0,5.1,118.0,5.9,'11111222,11111222,11111222' 
TCOON,ioos:station:TCOON:518:1,2008-04-03T04:00:00Z,29.5150,-94.5133,0.0,5.3,131.0,6.9,'11111222,11111222,11111222' 
TCOON,ioos:station:TCOON:518:1,2008-04-03T05:00:00Z,29.5150,-94.5133,0.0,6.0,138.0,6.9,'11111222,11111222,11111222' 
TCOON,ioos:station:TCOON:518:1,2008-04-03T06:00:00Z,29.5150,-94.5133,0.0,5.6,134.0,6.9,'11111222,11111222,11111222' 
TCOON,ioos:station:TCOON:518:1,2008-04-03T07:00:00Z,29.5150,-94.5133,0.0,6.9,125.0,8.2,'11111222,11111222,11111222' 
TCOON,ioos:station:TCOON:518:1,2008-04-03T08:00:00Z,29.5150,-94.5133,0.0,5.4,139.0,6.9,'11111222,11111222,11111222' 
TCOON,ioos:station:TCOON:518:1,2008-04-03T09:00:00Z,29.5150,-94.5133,0.0,6.4,139.0,7.6,'11111222,11111222,11111222' 
TCOON,ioos:station:TCOON:518:1,2008-04-03T10:00:00Z,29.5150,-94.5133,0.0,6.8,134.0,7.8,'11111222,11111222,11111222' 
TCOON,ioos:station:TCOON:518:1,2008-04-03T11:00:00Z,29.5150,-94.5133,0.0,6.1,133.0,7.7,'11111222,11111222,11111222' 
TCOON,ioos:station:TCOON:518:1,2008-04-03T12:00:00Z,29.5150,-94.5133,0.0,5.5,145.0,6.8,'11111222,11111222,11111222' 
TCOON,ioos:station:TCOON:518:1,2008-04-03T13:00:00Z,29.5150,-94.5133,0.0,6.3,141.0,8.0,'11111222,11111222,11111222' 
TCOON,ioos:station:TCOON:518:1,2008-04-03T14:00:00Z,29.5150,-94.5133,0.0,6.3,144.0,7.6,'11111222,11111222,11111222' 
TCOON,ioos:station:TCOON:518:1,2008-04-03T15:00:00Z,29.5150,-94.5133,0.0,5.9,153.0,7.4,'11111222,11111222,11111222' 
TCOON,ioos:station:TCOON:518:1,2008-04-03T16:00:00Z,29.5150,-94.5133,0.0,5.7,158.0,7.6,'11111222,11111222,11111222' 
TCOON,ioos:station:TCOON:518:1,2008-04-03T17:00:00Z,29.5150,-94.5133,0.0,6.6,156.0,9.6,'11111222,11111222,11111222' 
TCOON,ioos:station:TCOON:518:1,2008-04-03T18:00:00Z,29.5150,-94.5133,0.0,4.7,161.0,8.3,'11111222,11111222,11111222' 
TCOON,ioos:station:TCOON:518:1,2008-04-03T19:00:00Z,29.5150,-94.5133,0.0,7.8,155.0,10.6,'11111222,11111222,11111222' 
TCOON,ioos:station:TCOON:518:1,2008-04-03T20:00:00Z,29.5150,-94.5133,0.0,7.4,158.0,11.4,'11111222,11111222,11111222' 
TCOON,ioos:station:TCOON:518:1,2008-04-03T21:00:00Z,29.5150,-94.5133,0.0,7.6,151.0,10.1,'11111222,11111222,11111222' 
TCOON,ioos:station:TCOON:518:1,2008-04-03T22:00:00Z,29.5150,-94.5133,0.0,7.1,160.0,9.9,'11111222,11111222,11111222' 
TCOON,ioos:station:TCOON:518:1,2008-04-03T23:00:00Z,29.5150,-94.5133,0.0,4.1,161.0,6.6,'11111222,11111222,11111222' 
TCOON,ioos:station:TCOON:518:1,2008-04-04T00:00:00Z,29.5150,-94.5133,0.0,6.3,153.0,8.7,'11111222,11111222,11111222' 
TCOON,ioos:station:TCOON:518:1,2008-04-04T01:00:00Z,29.5150,-94.5133,0.0,7.0,152.0,10.2,'11111222,11111222,11111222' 
TCOON,ioos:station:TCOON:518:1,2008-04-04T02:00:00Z,29.5150,-94.5133,0.0,7.2,158.0,10.0,'11111222,11111222,11111222' 
TCOON,ioos:station:TCOON:518:1,2008-04-04T03:00:00Z,29.5150,-94.5133,0.0,5.7,161.0,8.3,'11111222,11111222,11111222' 
TCOON,ioos:station:TCOON:518:1,2008-04-04T04:00:00Z,29.5150,-94.5133,0.0,5.8,154.0,8.1,'11111222,11111222,11111222' 
TCOON,ioos:station:TCOON:518:1,2008-04-04T05:00:00Z,29.5150,-94.5133,0.0,5.9,161.0,8.3,'11111222,11111222,11111222' 
TCOON,ioos:station:TCOON:518:1,2008-04-04T06:00:00Z,29.5150,-94.5133,0.0,5.4,165.0,8.7,'11111222,11111222,11111222' 
TCOON,ioos:station:TCOON:518:1,2008-04-04T07:00:00Z,29.5150,-94.5133,0.0,5.9,158.0,8.4,'11111222,11111222,11111222' 
TCOON,ioos:station:TCOON:518:1,2008-04-04T08:00:00Z,29.5150,-94.5133,0.0,4.3,167.0,7.2,'11111222,11111222,11111222' 
TCOON,ioos:station:TCOON:518:1,2008-04-04T09:00:00Z,29.5150,-94.5133,0.0,5.4,162.0,8.0,'11111222,11111222,11111222' 
TCOON,ioos:station:TCOON:518:1,2008-04-04T10:00:00Z,29.5150,-94.5133,0.0,5.4,163.0,8.3,'11111222,11111222,11111222' 
TCOON,ioos:station:TCOON:518:1,2008-04-04T11:00:00Z,29.5150,-94.5133,0.0,3.9,165.0,6.8,'11111222,11111222,11111222' 
TCOON,ioos:station:TCOON:518:1,2008-04-04T12:00:00Z,29.5150,-94.5133,0.0,4.6,177.0,6.1,'11111222,11111222,11111222' 
TCOON,ioos:station:TCOON:518:1,2008-04-04T13:00:00Z,29.5150,-94.5133,0.0,3.7,178.0,5.0,'11111222,11111222,11111222' 
TCOON,ioos:station:TCOON:518:1,2008-04-04T14:00:00Z,29.5150,-94.5133,0.0,3.8,157.0,5.3,'11111222,11111222,11111222' 
TCOON,ioos:station:TCOON:518:1,2008-04-04T15:00:00Z,29.5150,-94.5133,0.0,5.8,141.0,7.0,'11111222,11111222,11111222' 
TCOON,ioos:station:TCOON:518:1,2008-04-04T16:00:00Z,29.5150,-94.5133,0.0,5.2,148.0,7.3,'11111222,11111222,11111222' 
TCOON,ioos:station:TCOON:518:1,2008-04-04T17:00:00Z,29.5150,-94.5133,0.0,5.0,149.0,6.5,'11111222,11111222,11111222' 
TCOON,ioos:station:TCOON:518:1,2008-04-04T18:00:00Z,29.5150,-94.5133,0.0,4.5,159.0,6.7,'11111222,11111222,11111222' 
TCOON,ioos:station:TCOON:518:1,2008-04-04T19:00:00Z,29.5150,-94.5133,0.0,5.2,178.0,7.1,'11111222,11111222,11111222' 
TCOON,ioos:station:TCOON:518:1,2008-04-04T20:00:00Z,29.5150,-94.5133,0.0,4.5,169.0,7.4,'11111222,11111222,11111222' 
TCOON,ioos:station:TCOON:518:1,2008-04-04T21:00:00Z,29.5150,-94.5133,0.0,5.6,181.0,8.3,'11111222,11111222,11111222' 
TCOON,ioos:station:TCOON:518:1,2008-04-04T22:00:00Z,29.5150,-94.5133,0.0,3.3,221.0,5.0,'11111222,11111222,11111222' 
TCOON,ioos:station:TCOON:518:1,2008-04-04T23:00:00Z,29.5150,-94.5133,0.0,10.8,350.0,13.0,'11111222,11111222,11111222' 
TCOON,ioos:station:TCOON:518:1,2008-04-05T00:00:00Z,29.5150,-94.5133,0.0,10.4,355.0,12.2,'11111222,11111222,11111222' 
TCOON,ioos:station:TCOON:518:1,2008-04-05T01:00:00Z,29.5150,-94.5133,0.0,10.3,357.0,12.1,'11111222,11111222,11111222' 
TCOON,ioos:station:TCOON:518:1,2008-04-05T02:00:00Z,29.5150,-94.5133,0.0,11.1,354.0,13.0,'11111222,11111222,11111222' 
TCOON,ioos:station:TCOON:518:1,2008-04-05T03:00:00Z,29.5150,-94.5133,0.0,9.6,336.0,11.4,'11111222,11111222,11111222' 
TCOON,ioos:station:TCOON:518:1,2008-04-05T04:00:00Z,29.5150,-94.5133,0.0,9.0,337.0,10.5,'11111222,11111222,11111222' 
TCOON,ioos:station:TCOON:518:1,2008-04-05T05:00:00Z,29.5150,-94.5133,0.0,8.0,340.0,10.1,'11111222,11111222,11111222' 
TCOON,ioos:station:TCOON:518:1,2008-04-05T06:00:00Z,29.5150,-94.5133,0.0,8.4,347.0,10.0,'11111222,11111222,11111222' 
TCOON,ioos:station:TCOON:518:1,2008-04-05T07:00:00Z,29.5150,-94.5133,0.0,8.5,340.0,10.0,'11111222,11111222,11111222' 
TCOON,ioos:station:TCOON:518:1,2008-04-05T08:00:00Z,29.5150,-94.5133,0.0,7.5,343.0,9.1,'11111222,11111222,11111222' 
TCOON,ioos:station:TCOON:518:1,2008-04-05T09:00:00Z,29.5150,-94.5133,0.0,6.6,355.0,8.8,'11111222,11111222,11111222' 
TCOON,ioos:station:TCOON:518:1,2008-04-05T10:00:00Z,29.5150,-94.5133,0.0,6.9,355.0,8.5,'11111222,11111222,11111222' 
TCOON,ioos:station:TCOON:518:1,2008-04-05T11:00:00Z,29.5150,-94.5133,0.0,7.6,348.0,9.2,'11111222,11111222,11111222' 
TCOON,ioos:station:TCOON:518:1,2008-04-05T12:00:00Z,29.5150,-94.5133,0.0,7.1,6.0,9.1,'11111222,11111222,11111222' 
TCOON,ioos:station:TCOON:518:1,2008-04-05T13:00:00Z,29.5150,-94.5133,0.0,6.3,345.0,7.7,'11111222,11111222,11111222' 
TCOON,ioos:station:TCOON:518:1,2008-04-05T14:00:00Z,29.5150,-94.5133,0.0,6.1,5.0,7.2,'11111222,11111222,11111222' 
TCOON,ioos:station:TCOON:518:1,2008-04-05T15:00:00Z,29.5150,-94.5133,0.0,7.3,347.0,8.6,'11111222,11111222,11111222' 
TCOON,ioos:station:TCOON:518:1,2008-04-05T16:00:00Z,29.5150,-94.5133,0.0,6.8,350.0,8.0,'11111222,11111222,11111222' 
TCOON,ioos:station:TCOON:518:1,2008-04-05T17:00:00Z,29.5150,-94.5133,0.0,6.5,346.0,7.9,'11111222,11111222,11111222' 
TCOON,ioos:station:TCOON:518:1,2008-04-05T18:00:00Z,29.5150,-94.5133,0.0,5.2,4.0,5.9,'11111222,11111222,11111222' 
TCOON,ioos:station:TCOON:518:1,2008-04-05T19:00:00Z,29.5150,-94.5133,0.0,3.7,31.0,5.6,'11111222,11111222,11111222' 
TCOON,ioos:station:TCOON:518:1,2008-04-05T20:00:00Z,29.5150,-94.5133,0.0,3.3,36.0,4.4,'11111222,11111222,11111222' 
TCOON,ioos:station:TCOON:518:1,2008-04-05T21:00:00Z,29.5150,-94.5133,0.0,3.3,126.0,4.2,'11111222,11111222,11111222' 
TCOON,ioos:station:TCOON:518:1,2008-04-05T22:00:00Z,29.5150,-94.5133,0.0,4.7,120.0,5.6,'11111222,11111222,11111222' 
TCOON,ioos:station:TCOON:518:1,2008-04-05T23:00:00Z,29.5150,-94.5133,0.0,4.9,106.0,5.9,'11111222,11111222,11111222' 
TCOON,ioos:station:TCOON:518:1,2008-04-06T00:00:00Z,29.5150,-94.5133,0.0,6.0,95.0,6.7,'11111222,11111222,11111222' 
TCOON,ioos:station:TCOON:518:1,2008-04-06T01:00:00Z,29.5150,-94.5133,0.0,5.1,88.0,5.8,'11111222,11111222,11111222' 
TCOON,ioos:station:TCOON:518:1,2008-04-06T02:00:00Z,29.5150,-94.5133,0.0,3.3,83.0,3.6,'11111222,11111222,11111222' 
TCOON,ioos:station:TCOON:518:1,2008-04-06T03:00:00Z,29.5150,-94.5133,0.0,4.9,45.0,6.3,'11111222,11111222,11111222' 
TCOON,ioos:station:TCOON:518:1,2008-04-06T04:00:00Z,29.5150,-94.5133,0.0,6.1,46.0,7.0,'11111222,11111222,11111222' 
TCOON,ioos:station:TCOON:518:1,2008-04-06T05:00:00Z,29.5150,-94.5133,0.0,6.7,37.0,8.1,'11111222,11111222,11111222' 
TCOON,ioos:station:TCOON:518:1,2008-04-06T06:00:00Z,29.5150,-94.5133,0.0,6.4,41.0,7.2,'11111222,11111222,11111222' 
TCOON,ioos:station:TCOON:518:1,2008-04-06T07:00:00Z,29.5150,-94.5133,0.0,5.9,32.0,7.0,'11111222,11111222,11111222' 
TCOON,ioos:station:TCOON:518:1,2008-04-06T08:00:00Z,29.5150,-94.5133,0.0,5.7,31.0,6.7,'11111222,11111222,11111222' 
TCOON,ioos:station:TCOON:518:1,2008-04-06T09:00:00Z,29.5150,-94.5133,0.0,6.5,41.0,7.2,'11111222,11111222,11111222' 
TCOON,ioos:station:TCOON:518:1,2008-04-06T10:00:00Z,29.5150,-94.5133,0.0,6.4,51.0,7.4,'11111222,11111222,11111222' 
TCOON,ioos:station:TCOON:518:1,2008-04-06T11:00:00Z,29.5150,-94.5133,0.0,6.1,47.0,7.1,'11111222,11111222,11111222' 
TCOON,ioos:station:TCOON:518:1,2008-04-06T12:00:00Z,29.5150,-94.5133,0.0,6.6,43.0,7.8,'11111222,11111222,11111222' 
TCOON,ioos:station:TCOON:518:1,2008-04-06T13:00:00Z,29.5150,-94.5133,0.0,5.0,46.0,6.0,'11111222,11111222,11111222' 
TCOON,ioos:station:TCOON:518:1,2008-04-06T14:00:00Z,29.5150,-94.5133,0.0,3.9,37.0,4.6,'11111222,11111222,11111222' 
TCOON,ioos:station:TCOON:518:1,2008-04-06T15:00:00Z,29.5150,-94.5133,0.0,5.2,102.0,6.9,'11111222,11111222,11111222' 
TCOON,ioos:station:TCOON:518:1,2008-04-06T16:00:00Z,29.5150,-94.5133,0.0,5.5,116.0,6.0,'11111222,11111222,11111222' 
TCOON,ioos:station:TCOON:518:1,2008-04-06T17:00:00Z,29.5150,-94.5133,0.0,3.4,96.0,4.3,'11111222,11111222,11111222' 
TCOON,ioos:station:TCOON:518:1,2008-04-06T18:00:00Z,29.5150,-94.5133,0.0,3.0,94.0,3.8,'11111222,11111222,11111222' 
TCOON,ioos:station:TCOON:518:1,2008-04-06T19:00:00Z,29.5150,-94.5133,0.0,3.8,100.0,5.2,'11111222,11111222,11111222' 
TCOON,ioos:station:TCOON:518:1,2008-04-06T20:00:00Z,29.5150,-94.5133,0.0,3.5,107.0,4.9,'11111222,11111222,11111222' 
TCOON,ioos:station:TCOON:518:1,2008-04-06T21:00:00Z,29.5150,-94.5133,0.0,4.9,113.0,9.1,'11111222,11111222,11111222' 
TCOON,ioos:station:TCOON:518:1,2008-04-06T22:00:00Z,29.5150,-94.5133,0.0,5.4,107.0,6.5,'11111222,11111222,11111222' 
TCOON,ioos:station:TCOON:518:1,2008-04-06T23:00:00Z,29.5150,-94.5133,0.0,6.2,113.0,7.3,'11111222,11111222,11111222' 
TCOON,ioos:station:TCOON:518:1,2008-04-07T00:00:00Z,29.5150,-94.5133,0.0,6.3,115.0,7.1,'11111222,11111222,11111222' 
TCOON,ioos:station:TCOON:518:1,2008-04-07T01:00:00Z,29.5150,-94.5133,0.0,6.2,111.0,6.9,'11111222,11111222,11111222' 
TCOON,ioos:station:TCOON:518:1,2008-04-07T02:00:00Z,29.5150,-94.5133,0.0,6.6,125.0,8.0,'11111222,11111222,11111222' 
TCOON,ioos:station:TCOON:518:1,2008-04-07T03:00:00Z,29.5150,-94.5133,0.0,5.8,136.0,7.2,'11111222,11111222,11111222' 
TCOON,ioos:station:TCOON:518:1,2008-04-07T04:00:00Z,29.5150,-94.5133,0.0,4.7,145.0,5.8,'11111222,11111222,11111222' 
TCOON,ioos:station:TCOON:518:1,2008-04-07T05:00:00Z,29.5150,-94.5133,0.0,6.4,139.0,7.4,'11111222,11111222,11111222' 
TCOON,ioos:station:TCOON:518:1,2008-04-07T06:00:00Z,29.5150,-94.5133,0.0,4.9,142.0,6.0,'11111222,11111222,11111222' 
TCOON,ioos:station:TCOON:518:1,2008-04-07T07:00:00Z,29.5150,-94.5133,0.0,3.7,151.0,4.7,'11111222,11111222,11111222' 
TCOON,ioos:station:TCOON:518:1,2008-04-07T08:00:00Z,29.5150,-94.5133,0.0,3.0,150.0,3.8,'11111222,11111222,11111222' 
TCOON,ioos:station:TCOON:518:1,2008-04-07T09:00:00Z,29.5150,-94.5133,0.0,2.3,151.0,2.9,'11111222,11111222,11111222' 
TCOON,ioos:station:TCOON:518:1,2008-04-07T10:00:00Z,29.5150,-94.5133,0.0,1.8,119.0,2.3,'11111222,11111222,11111222' 
TCOON,ioos:station:TCOON:518:1,2008-04-07T11:00:00Z,29.5150,-94.5133,0.0,4.7,133.0,5.5,'11111222,11111222,11111222' 
TCOON,ioos:station:TCOON:518:1,2008-04-07T12:00:00Z,29.5150,-94.5133,0.0,2.4,148.0,3.0,'11111222,11111222,11111222' 
TCOON,ioos:station:TCOON:518:1,2008-04-07T13:00:00Z,29.5150,-94.5133,0.0,2.5,348.0,2.9,'11111222,11111222,11111222' 
TCOON,ioos:station:TCOON:518:1,2008-04-07T14:00:00Z,29.5150,-94.5133,0.0,4.0,23.0,4.6,'11111222,11111222,11111222' 
TCOON,ioos:station:TCOON:518:1,2008-04-07T15:00:00Z,29.5150,-94.5133,0.0,4.4,32.0,5.0,'11111222,11111222,11111222' 
TCOON,ioos:station:TCOON:518:1,2008-04-07T16:00:00Z,29.5150,-94.5133,0.0,4.2,32.0,4.7,'11111222,11111222,11111222' 
TCOON,ioos:station:TCOON:518:1,2008-04-07T17:00:00Z,29.5150,-94.5133,0.0,6.2,92.0,6.6,'11111222,11111222,11111222' 
TCOON,ioos:station:TCOON:518:1,2008-04-07T18:00:00Z,29.5150,-94.5133,0.0,7.7,91.0,8.5,'11111222,11111222,11111222' 
TCOON,ioos:station:TCOON:518:1,2008-04-07T19:00:00Z,29.5150,-94.5133,0.0,7.1,94.0,8.5,'11111222,11111222,11111222' 
TCOON,ioos:station:TCOON:518:1,2008-04-07T20:00:00Z,29.5150,-94.5133,0.0,7.7,93.0,8.3,'11111222,11111222,11111222' 
TCOON,ioos:station:TCOON:518:1,2008-04-07T21:00:00Z,29.5150,-94.5133,0.0,8.1,105.0,9.7,'11111222,11111222,11111222' 
TCOON,ioos:station:TCOON:518:1,2008-04-07T22:00:00Z,29.5150,-94.5133,0.0,8.4,110.0,9.7,'11111222,11111222,11111222' 
TCOON,ioos:station:TCOON:518:1,2008-04-07T23:00:00Z,29.5150,-94.5133,0.0,7.7,110.0,8.8,'11111222,11111222,11111222' 
TCOON,ioos:station:TCOON:518:1,2008-04-08T00:00:00Z,29.5150,-94.5133,0.0,9.0,114.0,10.4,'11111222,11111222,11111222' 
TCOON,ioos:station:TCOON:518:1,2008-04-08T01:00:00Z,29.5150,-94.5133,0.0,9.4,121.0,10.5,'11111222,11111222,11111222' 
TCOON,ioos:station:TCOON:518:1,2008-04-08T02:00:00Z,29.5150,-94.5133,0.0,8.0,129.0,9.5,'11111222,11111222,11111222' 
TCOON,ioos:station:TCOON:518:1,2008-04-08T03:00:00Z,29.5150,-94.5133,0.0,9.1,130.0,10.6,'11111222,11111222,11111222' 
TCOON,ioos:station:TCOON:518:1,2008-04-08T04:00:00Z,29.5150,-94.5133,0.0,7.9,131.0,9.8,'11111222,11111222,11111222' 
TCOON,ioos:station:TCOON:518:1,2008-04-08T05:00:00Z,29.5150,-94.5133,0.0,7.4,129.0,8.4,'11111222,11111222,11111222' 
TCOON,ioos:station:TCOON:518:1,2008-04-08T06:00:00Z,29.5150,-94.5133,0.0,7.4,127.0,22.2,'11111222,11111222,11111222' 
TCOON,ioos:station:TCOON:518:1,2008-04-08T07:00:00Z,29.5150,-94.5133,0.0,6.3,136.0,8.6,'11111222,11111222,11111222' 
TCOON,ioos:station:TCOON:518:1,2008-04-08T08:00:00Z,29.5150,-94.5133,0.0,7.8,141.0,9.4,'11111222,11111222,11111222' 
TCOON,ioos:station:TCOON:518:1,2008-04-08T09:00:00Z,29.5150,-94.5133,0.0,6.6,131.0,7.7,'11111222,11111222,11111222' 
TCOON,ioos:station:TCOON:518:1,2008-04-08T10:00:00Z,29.5150,-94.5133,0.0,6.5,129.0,8.3,'11111222,11111222,11111222' 
TCOON,ioos:station:TCOON:518:1,2008-04-08T11:00:00Z,29.5150,-94.5133,0.0,5.9,148.0,7.1,'11111222,11111222,11111222' 
TCOON,ioos:station:TCOON:518:1,2008-04-08T12:00:00Z,29.5150,-94.5133,0.0,5.6,140.0,7.2,'11111222,11111222,11111222' 
TCOON,ioos:station:TCOON:518:1,2008-04-08T13:00:00Z,29.5150,-94.5133,0.0,5.8,134.0,6.7,'11111222,11111222,11111222' 
TCOON,ioos:station:TCOON:518:1,2008-04-08T14:00:00Z,29.5150,-94.5133,0.0,6.7,132.0,7.9,'11111222,11111222,11111222' 
TCOON,ioos:station:TCOON:518:1,2008-04-08T15:00:00Z,29.5150,-94.5133,0.0,7.1,136.0,8.4,'11111222,11111222,11111222' 
TCOON,ioos:station:TCOON:518:1,2008-04-08T16:00:00Z,29.5150,-94.5133,0.0,5.8,127.0,6.9,'11111222,11111222,11111222' 
TCOON,ioos:station:TCOON:518:1,2008-04-08T17:00:00Z,29.5150,-94.5133,0.0,4.9,132.0,5.7,'11111222,11111222,11111222' 
TCOON,ioos:station:TCOON:518:1,2008-04-08T18:00:00Z,29.5150,-94.5133,0.0,5.8,112.0,6.9,'11111222,11111222,11111222' 
TCOON,ioos:station:TCOON:518:1,2008-04-08T19:00:00Z,29.5150,-94.5133,0.0,6.1,116.0,7.3,'11111222,11111222,11111222' 
TCOON,ioos:station:TCOON:518:1,2008-04-08T20:00:00Z,29.5150,-94.5133,0.0,6.8,116.0,7.8,'11111222,11111222,11111222' 
TCOON,ioos:station:TCOON:518:1,2008-04-08T21:00:00Z,29.5150,-94.5133,0.0,7.3,117.0,8.6,'11111222,11111222,11111222' 
TCOON,ioos:station:TCOON:518:1,2008-04-08T22:00:00Z,29.5150,-94.5133,0.0,6.9,124.0,7.9,'11111222,11111222,11111222' 
TCOON,ioos:station:TCOON:518:1,2008-04-08T23:00:00Z,29.5150,-94.5133,0.0,6.9,122.0,8.5,'11111222,11111222,11111222' 
TCOON,ioos:station:TCOON:518:1,2008-04-09T00:00:00Z,29.5150,-94.5133,0.0,8.0,114.0,9.2,'11111222,11111222,11111222' 
TCOON,ioos:station:TCOON:518:1,2008-04-09T01:00:00Z,29.5150,-94.5133,0.0,6.8,111.0,8.1,'11111222,11111222,11111222' 
TCOON,ioos:station:TCOON:518:1,2008-04-09T02:00:00Z,29.5150,-94.5133,0.0,7.6,106.0,9.0,'11111222,11111222,11111222' 
TCOON,ioos:station:TCOON:518:1,2008-04-09T03:00:00Z,29.5150,-94.5133,0.0,7.9,108.0,10.0,'11111222,11111222,11111222' 
TCOON,ioos:station:TCOON:518:1,2008-04-09T04:00:00Z,29.5150,-94.5133,0.0,7.7,108.0,9.1,'11111222,11111222,11111222' 
TCOON,ioos:station:TCOON:518:1,2008-04-09T05:00:00Z,29.5150,-94.5133,0.0,6.5,109.0,8.2,'11111222,11111222,11111222' 
TCOON,ioos:station:TCOON:518:1,2008-04-09T06:00:00Z,29.5150,-94.5133,0.0,7.5,122.0,8.3,'11111222,11111222,11111222' 
TCOON,ioos:station:TCOON:518:1,2008-04-09T07:00:00Z,29.5150,-94.5133,0.0,7.8,120.0,9.5,'11111222,11111222,11111222' 
TCOON,ioos:station:TCOON:518:1,2008-04-09T08:00:00Z,29.5150,-94.5133,0.0,6.9,115.0,8.7,'11111222,11111222,11111222' 
TCOON,ioos:station:TCOON:518:1,2008-04-09T09:00:00Z,29.5150,-94.5133,0.0,6.8,122.0,8.0,'11111222,11111222,11111222' 
TCOON,ioos:station:TCOON:518:1,2008-04-09T10:00:00Z,29.5150,-94.5133,0.0,6.5,126.0,7.8,'11111222,11111222,11111222' 
TCOON,ioos:station:TCOON:518:1,2008-04-09T11:00:00Z,29.5150,-94.5133,0.0,6.1,114.0,6.9,'11111222,11111222,11111222' 
TCOON,ioos:station:TCOON:518:1,2008-04-09T12:00:00Z,29.5150,-94.5133,0.0,7.2,117.0,8.7,'11111222,11111222,11111222' 
TCOON,ioos:station:TCOON:518:1,2008-04-09T13:00:00Z,29.5150,-94.5133,0.0,6.5,108.0,7.5,'11111222,11111222,11111222' 